This is the latest recevied weather packets stored in our database for station/object IR9AK-10. If no packets are shown the sender has not sent any weather packets the latest 1 day(s).
| Time | Temp. | Humidity | Pressure | Rain* | Wind** | Luminosity | Snow |
|---|---|---|---|---|---|---|---|
| 1778055297 | 22.22° C | 50% | 1059 hPa | - | - | - | - |
| 1778054698 | 23.33° C | 49% | 1058.8 hPa | - | - | - | - |
| 1778053501 | 23.89° C | 46% | 1058.9 hPa | - | - | - | - |
| 1778051702 | 23.33° C | 47% | 1059.2 hPa | - | - | - | - |
| 1778049905 | 23.33° C | 42% | 1059.2 hPa | - | - | - | - |
| 1778048706 | 23.33° C | 44% | 1059.4 hPa | - | - | - | - |
| 1778047508 | 22.78° C | 46% | 1059.3 hPa | - | - | - | - |
| 1778046910 | 22.78° C | 45% | 1059.1 hPa | - | - | - | - |
| 1778045711 | 21.67° C | 46% | 1058.8 hPa | - | - | - | - |
| 1778045111 | 21.67° C | 47% | 1058.7 hPa | - | - | - | - |
| 1778043315 | 20° C | 48% | 1058.2 hPa | - | - | - | - |
| 1778042117 | 20° C | 52% | 1058.2 hPa | - | - | - | - |
| 1778040917 | 20° C | 52% | 1058 hPa | - | - | - | - |
| 1778040319 | 20° C | 50% | 1057.9 hPa | - | - | - | - |
| 1778039719 | 20.56° C | 47% | 1057.9 hPa | - | - | - | - |
| 1778039120 | 20.56° C | 47% | 1057.9 hPa | - | - | - | - |
| 1778038521 | 20° C | 48% | 1057.7 hPa | - | - | - | - |
| 1778037923 | 20° C | 50% | 1057.7 hPa | - | - | - | - |
| 1778037324 | 19.44° C | 57% | 1057.7 hPa | - | - | - | - |
| 1778036127 | 19.44° C | 57% | - | - | - | - | - |
| 1778034331 | 20° C | 65% | 1057.9 hPa | - | - | - | - |
| 1778033133 | 20° C | 65% | 1057.8 hPa | - | - | - | - |
| 1778032533 | 19.44° C | 64% | 1057.8 hPa | - | - | - | - |
| 1778031934 | 19.44° C | 62% | 1057.8 hPa | - | - | - | - |
| 1778030735 | 19.44° C | 54% | 1057.9 hPa | - | - | - | - |
* Rain since midnight (hover to see other rain measurements)
** Current wind speed in m/s (hover to see current wind gust speed)